| time (UTC) | temp F | wind direction | speed MPH | gust MPH | rain 1hr in | rain 24hr in | rain mn in | humidity % | barometer mb |
| 20260505022023 | 57 | 331 | 0.0 | 0.0 | 0.00 | 0.00 | 0.00 | 53 | 1015.0 |
| 20260505021526 | 58 | 331 | 0.0 | 0.0 | 0.00 | 0.00 | 0.00 | 53 | 1014.9 |
| 20260505021020 | 58 | 324 | 0.0 | 0.0 | 0.00 | 0.00 | 0.00 | 52 | 1014.8 |
| 20260505020619 | 59 | 334 | 0.0 | 0.0 | 0.00 | 0.00 | 0.00 | 52 | 1014.8 |
| 20260505020028 | 59 | 338 | 0.0 | 0.0 | 0.00 | 0.00 | 0.00 | 52 | 1014.7 |
| 20260505015519 | 59 | 340 | 0.0 | 0.0 | 0.00 | 0.00 | 0.00 | 51 | 1014.6 |
| 20260505015019 | 59 | 341 | 0.0 | 0.0 | 0.00 | 0.00 | 0.00 | 51 | 1014.5 |
| 20260505014526 | 60 | 342 | 0.0 | 0.0 | 0.00 | 0.00 | 0.00 | 50 | 1014.5 |
| 20260505014018 | 60 | 12 | 0.0 | 0.0 | 0.00 | 0.00 | 0.00 | 49 | 1014.4 |
| 20260505013516 | 60 | 349 | 0.0 | 0.0 | 0.00 | 0.00 | 0.00 | 47 | 1014.3 |
| 20260505013016 | 61 | 329 | 0.0 | 0.0 | 0.00 | 0.00 | 0.00 | 48 | 1014.3 |
| 20260505012515 | 61 | 337 | 0.0 | 0.0 | 0.00 | 0.00 | 0.00 | 47 | 1014.2 |
| 20260505012018 | 61 | 340 | 0.0 | 1.0 | 0.00 | 0.00 | 0.00 | 46 | 1014.1 |
| 20260505011528 | 62 | 8 | 0.0 | 1.0 | 0.00 | 0.00 | 0.00 | 44 | 1014.1 |
| 20260505011014 | 62 | 7 | 0.0 | 3.0 | 0.00 | 0.00 | 0.00 | 45 | 1014.1 |
| 20260505010614 | 62 | 18 | 0.0 | 1.0 | 0.00 | 0.00 | 0.00 | 45 | 1014.0 |
| 20260505010015 | 62 | 337 | 0.0 | 1.0 | 0.00 | 0.00 | 0.00 | 45 | 1014.2 |
| 20260505005515 | 63 | 337 | 0.0 | 1.0 | 0.00 | 0.00 | 0.00 | 45 | 1014.1 |
| 20260505005013 | 63 | 337 | 0.0 | 1.0 | 0.00 | 0.00 | 0.00 | 45 | 1014.1 |
| 20260505004531 | 64 | 333 | 0.0 | 1.0 | 0.00 | 0.00 | 0.00 | 44 | 1013.9 |
| 20260505004013 | 64 | 330 | 0.0 | 1.0 | 0.00 | 0.00 | 0.00 | 43 | 1013.8 |
| 20260505003511 | 65 | 333 | 0.0 | 1.0 | 0.00 | 0.00 | 0.00 | 41 | 1013.7 |
| 20260505003012 | 65 | 330 | 0.0 | 1.0 | 0.00 | 0.00 | 0.00 | 41 | 1013.5 |
| 20260505002611 | 66 | 332 | 0.0 | 1.0 | 0.00 | 0.00 | 0.00 | 38 | 1013.5 |
| 20260505002017 | 68 | 345 | 0.0 | 0.0 | 0.00 | 0.00 | 0.00 | 36 | 1013.4 |
| 20260505001509 | 68 | 1 | 0.0 | 0.0 | 0.00 | 0.00 | 0.00 | 34 | 1013.5 |
| 20260505001014 | 69 | 1 | 0.0 | 0.0 | 0.00 | 0.00 | 0.00 | 34 | 1013.5 |
| 20260505000609 | 72 | 352 | 0.0 | 0.0 | 0.00 | 0.00 | 0.00 | 29 | 1013.6 |
| 20260505000008 | 72 | 11 | 0.0 | 0.0 | 0.00 | 0.00 | 0.00 | 28 | 1013.4 |
| 20260504235506 | 74 | 4 | 0.0 | 0.0 | 0.00 | 0.00 | 0.00 | 27 | 1013.3 |
| 20260504235104 | 74 | 1 | 0.0 | 0.0 | 0.00 | 0.00 | 0.00 | 27 | 1013.3 |
| 20260504234505 | 74 | 2 | 0.0 | 0.0 | 0.00 | 0.00 | 0.00 | 26 | 1013.4 |
| 20260504234002 | 75 | 20 | 0.0 | 0.0 | 0.00 | 0.00 | 0.00 | 24 | 1013.2 |
| 20260504233502 | 77 | 307 | 0.0 | 0.0 | 0.00 | 0.00 | 0.00 | 26 | 1013.4 |
| 20260504233001 | 78 | 307 | 0.0 | 0.0 | 0.00 | 0.00 | 0.00 | 21 | 1013.2 |
| 20260504232501 | 77 | 288 | 0.0 | 1.0 | 0.00 | 0.00 | 0.00 | 22 | 1013.3 |
| 20260504232000 | 77 | 262 | 0.0 | 1.0 | 0.00 | 0.00 | 0.00 | 21 | 1013.3 |
| 20260504231602 | 77 | 263 | 0.0 | 1.0 | 0.00 | 0.00 | 0.00 | 20 | 1013.2 |
| 20260504231100 | 78 | 260 | 0.0 | 1.0 | 0.00 | 0.00 | 0.00 | 19 | 1013.2 |
| 20260504230558 | 78 | 13 | 0.0 | 2.0 | 0.00 | 0.00 | 0.00 | 18 | 1013.2 |
| 20260504230000 | 78 | 356 | 0.0 | 2.0 | 0.00 | 0.00 | 0.00 | 17 | 1013.2 |
| 20260504225600 | 78 | 65 | 0.0 | 3.0 | 0.00 | 0.00 | 0.00 | 18 | 1013.2 |
| 20260504225001 | 77 | 324 | 0.0 | 4.0 | 0.00 | 0.00 | 0.00 | 18 | 1013.1 |
| 20260504224600 | 77 | 13 | 0.0 | 7.0 | 0.00 | 0.00 | 0.00 | 19 | 1013.0 |
| 20260504224101 | 77 | 278 | 2.0 | 7.0 | 0.00 | 0.00 | 0.00 | 17 | 1013.0 |
| 20260504223600 | 77 | 255 | 1.0 | 6.0 | 0.00 | 0.00 | 0.00 | 17 | 1013.1 |
| 20260504223105 | 77 | 49 | 0.0 | 9.0 | 0.00 | 0.00 | 0.00 | 17 | 1013.1 |
| 20260504222559 | 77 | 330 | 1.0 | 9.0 | 0.00 | 0.00 | 0.00 | 17 | 1013.1 |
| 20260504222058 | 77 | 335 | 5.0 | 9.0 | 0.00 | 0.00 | 0.00 | 16 | 1013.2 |
| 20260504221604 | 77 | 107 | 1.0 | 9.0 | 0.00 | 0.00 | 0.00 | 18 | 1013.1 |
| 20260504221055 | 77 | 11 | 2.0 | 9.0 | 0.00 | 0.00 | 0.00 | 18 | 1013.2 |
| 20260504220555 | 77 | 54 | 3.0 | 12.0 | 0.00 | 0.00 | 0.00 | 17 | 1013.1 |
| 20260504215600 | 78 | 354 | 3.0 | 10.0 | 0.00 | 0.00 | 0.00 | 18 | 1013.0 |
| 20260504215057 | 78 | 32 | 2.0 | 7.0 | 0.00 | 0.00 | 0.00 | 18 | 1012.9 |
| 20260504214558 | 78 | 328 | 2.0 | 9.0 | 0.00 | 0.00 | 0.00 | 18 | 1013.0 |
| 20260504214054 | 78 | 238 | 4.0 | 9.0 | 0.00 | 0.00 | 0.00 | 18 | 1013.1 |
| 20260504213554 | 78 | 205 | 3.0 | 8.0 | 0.00 | 0.00 | 0.00 | 18 | 1013.0 |
| 20260504213054 | 79 | 194 | 2.0 | 8.0 | 0.00 | 0.00 | 0.00 | 17 | 1013.1 |
| 20260504212552 | 79 | 85 | 2.0 | 8.0 | 0.00 | 0.00 | 0.00 | 19 | 1013.0 |
| 20260504212055 | 78 | 101 | 1.0 | 10.0 | 0.00 | 0.00 | 0.00 | 18 | 1012.9 |
| 20260504211551 | 79 | 343 | 4.0 | 10.0 | 0.00 | 0.00 | 0.00 | 17 | 1012.9 |
| 20260504211051 | 79 | 266 | 2.0 | 8.0 | 0.00 | 0.00 | 0.00 | 17 | 1012.9 |
| 20260504210549 | 80 | 338 | 2.0 | 8.0 | 0.00 | 0.00 | 0.00 | 16 | 1012.8 |
| 20260504205544 | 80 | 334 | 3.0 | 10.0 | 0.00 | 0.00 | 0.00 | 17 | 1012.9 |
| 20260504205043 | 80 | 56 | 1.0 | 11.0 | 0.00 | 0.00 | 0.00 | 18 | 1013.0 |
| 20260504204543 | 80 | 248 | 5.0 | 11.0 | 0.00 | 0.00 | 0.00 | 17 | 1012.7 |
| 20260504204042 | 81 | 128 | 2.0 | 9.0 | 0.00 | 0.00 | 0.00 | 17 | 1012.9 |
| 20260504203540 | 81 | 87 | 2.0 | 12.0 | 0.00 | 0.00 | 0.00 | 16 | 1012.9 |
| 20260504203040 | 80 | 89 | 4.0 | 12.0 | 0.00 | 0.00 | 0.00 | 18 | 1013.0 |
| 20260504202539 | 80 | 286 | 3.0 | 11.0 | 0.00 | 0.00 | 0.00 | 17 | 1013.0 |
| 20260504202037 | 80 | 176 | 2.0 | 8.0 | 0.00 | 0.00 | 0.00 | 17 | 1013.0 |
| 20260504201538 | 81 | 236 | 2.0 | 7.0 | 0.00 | 0.00 | 0.00 | 17 | 1013.2 |
| 20260504201036 | 80 | 271 | 3.0 | 7.0 | 0.00 | 0.00 | 0.00 | 17 | 1013.1 |
| 20260504200635 | 80 | 212 | 3.0 | 12.0 | 0.00 | 0.00 | 0.00 | 18 | 1013.3 |
| 20260504195533 | 80 | 273 | 5.0 | 12.0 | 0.00 | 0.00 | 0.00 | 17 | 1013.6 |
| 20260504195033 | 82 | 228 | 2.0 | 9.0 | 0.00 | 0.00 | 0.00 | 17 | 1013.7 |
| 20260504194533 | 81 | 220 | 2.0 | 6.0 | 0.00 | 0.00 | 0.00 | 17 | 1013.8 |
| 20260504194032 | 81 | 95 | 1.0 | 7.0 | 0.00 | 0.00 | 0.00 | 18 | 1013.8 |
| 20260504193532 | 80 | 237 | 2.0 | 12.0 | 0.00 | 0.00 | 0.00 | 18 | 1013.9 |
| 20260504193030 | 80 | 23 | 6.0 | 12.0 | 0.00 | 0.00 | 0.00 | 18 | 1014.0 |
| 20260504192528 | 81 | 139 | 2.0 | 7.0 | 0.00 | 0.00 | 0.00 | 17 | 1014.0 |
| 20260504192027 | 80 | 83 | 1.0 | 8.0 | 0.00 | 0.00 | 0.00 | 18 | 1014.1 |
| 20260504191526 | 81 | 19 | 3.0 | 8.0 | 0.00 | 0.00 | 0.00 | 17 | 1014.3 |
| 20260504191026 | 81 | 63 | 3.0 | 8.0 | 0.00 | 0.00 | 0.00 | 18 | 1014.3 |
| 20260504190525 | 80 | 84 | 1.0 | 11.0 | 0.00 | 0.00 | 0.00 | 18 | 1014.4 |
| 20260504185522 | 80 | 181 | 2.0 | 11.0 | 0.00 | 0.00 | 0.00 | 17 | 1014.5 |
| 20260504185122 | 80 | 109 | 3.0 | 7.0 | 0.00 | 0.00 | 0.00 | 18 | 1014.4 |
| 20260504184520 | 80 | 122 | 2.0 | 9.0 | 0.00 | 0.00 | 0.00 | 18 | 1014.5 |
| 20260504184022 | 79 | 322 | 3.0 | 9.0 | 0.00 | 0.00 | 0.00 | 17 | 1014.6 |
| 20260504183519 | 79 | 102 | 2.0 | 8.0 | 0.00 | 0.00 | 0.00 | 18 | 1014.6 |
| 20260504183016 | 79 | 74 | 1.0 | 8.0 | 0.00 | 0.00 | 0.00 | 20 | 1014.7 |
| 20260504182515 | 79 | 330 | 3.0 | 8.0 | 0.00 | 0.00 | 0.00 | 18 | 1014.8 |
| 20260504182014 | 79 | 244 | 2.0 | 7.0 | 0.00 | 0.00 | 0.00 | 19 | 1014.9 |
| 20260504181514 | 81 | 51 | 2.0 | 7.0 | 0.00 | 0.00 | 0.00 | 18 | 1015.0 |
| 20260504181013 | 82 | 354 | 1.0 | 7.0 | 0.00 | 0.00 | 0.00 | 18 | 1015.1 |
| 20260504180513 | 81 | 129 | 1.0 | 5.0 | 0.00 | 0.00 | 0.00 | 17 | 1015.1 |
| 20260504175516 | 81 | 155 | 2.0 | 7.0 | 0.00 | 0.00 | 0.00 | 17 | 1015.1 |
| 20260504175010 | 78 | 110 | 1.0 | 7.0 | 0.00 | 0.00 | 0.00 | 19 | 1015.2 |
| 20260504174510 | 78 | 333 | 1.0 | 9.0 | 0.00 | 0.00 | 0.00 | 17 | 1015.3 |
| 20260504174008 | 79 | 30 | 2.0 | 9.0 | 0.00 | 0.00 | 0.00 | 16 | 1015.3 |
| 20260504173508 | 78 | 58 | 1.0 | 6.0 | 0.00 | 0.00 | 0.00 | 17 | 1015.3 |
| 20260504173007 | 78 | 10 | 1.0 | 6.0 | 0.00 | 0.00 | 0.00 | 17 | 1015.5 |
| 20260504172506 | 77 | 76 | 2.0 | 6.0 | 0.00 | 0.00 | 0.00 | 17 | 1015.5 |
| 20260504172005 | 78 | 111 | 2.0 | 7.0 | 0.00 | 0.00 | 0.00 | 17 | 1015.4 |
| 20260504171505 | 78 | 202 | 4.0 | 7.0 | 0.00 | 0.00 | 0.00 | 16 | 1015.7 |
| 20260504171003 | 77 | 269 | 1.0 | 5.0 | 0.00 | 0.00 | 0.00 | 17 | 1015.7 |
| 20260504170500 | 76 | 286 | 0.0 | 10.0 | 0.00 | 0.00 | 0.00 | 17 | 1015.8 |
| 20260504151031 | 70 | 122 | 1.0 | 3.0 | 0.00 | 0.00 | 0.00 | 21 | 1018.0 |
| 20260504150531 | 70 | 72 | 0.0 | 3.0 | 0.00 | 0.00 | 0.00 | 26 | 1018.1 |
| 20260504141017 | 62 | 181 | 0.0 | 1.0 | 0.00 | 0.00 | 0.00 | 35 | 1018.2 |
| 20260504140515 | 61 | 300 | 0.0 | 2.0 | 0.00 | 0.00 | 0.00 | 39 | 1018.2 |
| 20260504130552 | 51 | 323 | 1.0 | 4.0 | 0.00 | 0.00 | 0.00 | 58 | 1018.0 |
| 20260504110530 | 37 | 345 | 0.0 | 1.0 | 0.00 | 0.00 | 0.00 | 75 | 1017.7 |
| 20260504100521 | 37 | 337 | 0.0 | 0.0 | 0.00 | 0.00 | 0.00 | 73 | 1017.8 |
| 20260504082004 | 39 | 259 | 0.0 | 1.0 | 0.00 | 0.00 | 0.00 | 67 | 1017.4 |
| 20260504081504 | 39 | 259 | 0.0 | 1.0 | 0.00 | 0.00 | 0.00 | 68 | 1017.5 |
| 20260504081004 | 39 | 342 | 0.0 | 1.0 | 0.00 | 0.00 | 0.00 | 67 | 1017.4 |
| 20260504080603 | 39 | 343 | 0.0 | 1.0 | 0.00 | 0.00 | 0.00 | 67 | 1017.3 |
| 20260504070153 | 40 | 334 | 0.0 | 0.0 | 0.00 | 0.00 | 0.00 | 66 | 1017.1 |
| 20260504050532 | 44 | 1 | 0.0 | 0.0 | 0.00 | 0.00 | 0.00 | 66 | 1017.8 |
| 20260504050132 | 44 | 1 | 0.0 | 0.0 | 0.00 | 0.00 | 0.00 | 65 | 1017.7 |
| 20260504045527 | 44 | 332 | 0.0 | 0.0 | 0.00 | 0.00 | 0.00 | 66 | 1017.6 |
| 20260504045026 | 44 | 332 | 0.0 | 0.0 | 0.00 | 0.00 | 0.00 | 66 | 1017.6 |
| 20260504044528 | 45 | 332 | 0.0 | 1.0 | 0.00 | 0.00 | 0.00 | 65 | 1017.5 |
| 20260504044023 | 45 | 331 | 0.0 | 1.0 | 0.00 | 0.00 | 0.00 | 63 | 1017.4 |
| 20260504043522 | 45 | 354 | 0.0 | 0.0 | 0.00 | 0.00 | 0.00 | 61 | 1017.4 |
| 20260504043022 | 46 | 350 | 0.0 | 0.0 | 0.00 | 0.00 | 0.00 | 63 | 1017.3 |
| 20260504042521 | 46 | 348 | 0.0 | 0.0 | 0.00 | 0.00 | 0.00 | 60 | 1017.3 |
| 20260504042019 | 46 | 348 | 0.0 | 0.0 | 0.00 | 0.00 | 0.00 | 61 | 1017.5 |
| 20260504041517 | 46 | 348 | 0.0 | 0.0 | 0.00 | 0.00 | 0.00 | 60 | 1017.6 |
| 20260504041017 | 46 | 349 | 0.0 | 0.0 | 0.00 | 0.00 | 0.00 | 62 | 1017.4 |
| 20260504040515 | 46 | 348 | 0.0 | 0.0 | 0.00 | 0.00 | 0.00 | 62 | 1017.4 |
| 20260504035513 | 46 | 348 | 0.0 | 0.0 | 0.00 | 0.00 | 0.00 | 62 | 1017.3 |
| 20260504035014 | 47 | 348 | 0.0 | 0.0 | 0.00 | 0.00 | 0.00 | 60 | 1017.3 |
| 20260504034513 | 48 | 348 | 0.0 | 0.0 | 0.00 | 0.00 | 0.00 | 60 | 1017.2 |
| 20260504034012 | 48 | 348 | 0.0 | 0.0 | 0.00 | 0.00 | 0.00 | 58 | 1017.4 |
| 20260504033511 | 47 | 348 | 0.0 | 0.0 | 0.00 | 0.00 | 0.00 | 60 | 1017.5 |
| 20260504033012 | 47 | 348 | 0.0 | 1.0 | 0.00 | 0.00 | 0.00 | 61 | 1017.4 |
| 20260504032516 | 47 | 355 | 0.0 | 1.0 | 0.00 | 0.00 | 0.00 | 60 | 1017.5 |
| 20260504032010 | 48 | 356 | 0.0 | 0.0 | 0.00 | 0.00 | 0.00 | 59 | 1017.4 |
| 20260504031510 | 48 | 356 | 0.0 | 1.0 | 0.00 | 0.00 | 0.00 | 58 | 1017.5 |
| 20260504031009 | 48 | 339 | 0.0 | 1.0 | 0.00 | 0.00 | 0.00 | 60 | 1017.4 |
| 20260504030509 | 48 | 333 | 0.0 | 1.0 | 0.00 | 0.00 | 0.00 | 59 | 1017.5 |
| 20260504030109 | 49 | 19 | 0.0 | 1.0 | 0.00 | 0.00 | 0.00 | 56 | 1017.5 |
| 20260504025510 | 50 | 27 | 0.0 | 1.0 | 0.00 | 0.00 | 0.00 | 55 | 1017.6 |
| 20260504025012 | 51 | 35 | 0.0 | 1.0 | 0.00 | 0.00 | 0.00 | 54 | 1017.6 |
| 20260504024508 | 52 | 51 | 0.0 | 0.0 | 0.00 | 0.00 | 0.00 | 51 | 1017.6 |
| 20260504024007 | 53 | 53 | 0.0 | 0.0 | 0.00 | 0.00 | 0.00 | 49 | 1017.6 |
| 20260504023507 | 52 | 53 | 0.0 | 0.0 | 0.00 | 0.00 | 0.00 | 52 | 1017.5 |
| 20260504023007 | 53 | 53 | 0.0 | 0.0 | 0.00 | 0.00 | 0.00 | 50 | 1017.5 |
| 20260504022509 | 54 | 53 | 0.0 | 0.0 | 0.00 | 0.00 | 0.00 | 48 | 1017.4 |